Wetbulb
78.31 78.54 78.82 78.68 78.00 77.78 77.80 76.96 77.52 77.39 77.02 76.27 76.80 75.10 72.49 75.16 75.36 75.26 75.07 74.37 74.91 75.24 74.92 74.70 74.76 74.72 75.03 74.78 74.25 74.32 74.05 73.92 73.49 73.13 73.39 73.88 73.59 73.62 72.60 71.91 72.04 72.47 71.99
78.56 78.53 77.86 78.19 78.23 78.87 77.89 77.34 76.45 76.37 76.21 75.63 74.87 75.22 73.98 74.07 76.08 74.89 73.69 75.79 74.86 74.69 74.64 74.98 74.91 74.78 74.92 74.78 74.80 74.70 74.56 74.09 74.13 73.47 73.27 73.69 73.79 73.43 73.19 72.42 72.23 72.27 72.29
78.13 79.32 78.67 77.55 78.33 78.38 77.59 77.92 77.39 77.24 74.02 73.32 72.10 74.87 74.98 74.70 75.52 74.43 74.68 74.44 74.57 74.96 74.88 74.22 74.39 74.97 75.01 75.03 74.54 74.77 74.62 74.75 74.05 73.55 73.50 74.26 74.27 74.12 73.35 72.63 72.77 73.34 73.71
78.29 78.80 77.65 78.19 78.64 78.39 77.74 76.53 76.52 75.26 73.08 71.72 72.90 74.10 73.72 74.41 73.99 75.01 75.04 73.89 74.05 74.21 74.48 74.96 74.82 74.49 74.30 74.76 75.03 74.85 74.52 74.60 75.35 74.80 74.91 74.79 74.54 74.46 74.00 73.96 73.40 73.53 73.51
78.61 78.82 77.53 78.75 79.60 78.07 77.55 77.60 76.23 76.02 73.43 72.97 71.50 73.15 72.80 72.83 72.19 71.71 73.26 74.68 74.77 73.88 74.87 75.54 75.45 74.84 73.50 74.05 74.47 74.83 74.89 74.94 75.14 74.49 74.99 75.07 74.59 74.56 74.52 74.27 74.48 73.98 73.55
79.28 79.20 78.11 78.47 78.17 76.85 76.98 77.66 75.54 76.39 74.71 73.53 69.84 70.10 72.49 72.83 73.57 72.46 72.85 74.06 74.48 75.19 74.85 76.30 74.98 74.42 74.86 73.36 73.58 74.08 75.08 75.15 74.82 74.79 74.72 74.43 74.25 74.77 74.90 74.67 74.52 74.40 74.00
79.46 79.79 78.10 77.91 77.98 76.67 75.90 76.21 75.87 74.76 74.78 74.60 68.91 68.65 70.36 71.69 71.58 72.42 72.92 72.66 72.58 73.24 73.91 74.29 75.11 74.67 74.55 74.11 73.06 72.76 73.20 73.91 74.25 74.14 74.17 74.50 73.73 73.85 74.04 73.57 74.08 74.29 74.42
79.51 79.27 79.80 77.71 78.49 77.12 76.24 76.10 75.48 75.02 74.48 72.93 68.77 69.31 65.76 67.74 69.91 72.01 74.20 72.51 72.16 72.12 71.76 72.39 73.26 74.82 75.52 75.08 75.27 73.26 73.81 73.69 73.38 73.55 73.06 72.49 72.26 71.55 72.12 72.80 73.32 73.18 73.50
79.15 79.64 79.05 78.61 78.43 77.34 75.85 76.43 76.18 75.38 72.48 73.19 71.39 69.10 65.58 65.23 66.90 70.07 72.01 72.51 72.35 71.78 71.28 71.91 72.93 74.33 75.30 73.48 72.66 72.70 73.07 73.30 73.15 72.56 70.85 69.20 68.42 68.39 68.93 69.57 70.11 70.30 70.48
78.50 78.94 79.01 78.60 79.32 77.38 77.36 76.77 76.59 75.82 74.77 70.81 70.30 70.28 72.05 72.03 65.46 65.23 69.53 71.39 72.00 71.69 72.75 71.71 71.98 72.53 71.90 68.49 68.63 70.35 69.57 69.06 68.58 67.59 66.95 66.34 66.53 66.65 67.01 67.31 67.65 67.79 68.18
78.86 78.26 78.77 78.35 78.56 78.26 78.23 78.07 76.92 76.52 74.36 72.13 68.37 69.68 70.41 69.81 70.92 67.37 66.12 67.98 70.44 71.32 71.93 71.24 71.60 71.57 71.64 70.38 69.92 67.27 67.57 67.87 67.87 67.04 66.49 66.01 65.53 65.65 65.97 66.20 66.15 66.31 66.64
77.15 78.67 78.51 78.86 79.37 78.97 78.41 78.10 77.87 76.91 75.76 74.36 70.17 70.55 68.78 67.68 67.46 67.73 66.47 68.64 68.52 70.20 71.26 71.71 71.34 71.26 71.68 71.04 70.06 68.75 68.83 68.02 67.10 65.74 65.28 65.16 65.57 65.86 66.59 67.22 67.58 67.71 67.65
75.53 77.81 78.64 78.34 78.38 79.32 78.93 78.95 78.20 77.02 76.29 74.70 73.50 69.01 69.63 69.60 69.81 68.37 67.67 68.23 66.67 69.49 69.72 70.95 71.58 71.64 71.22 71.89 71.48 69.19 68.92 68.57 68.13 67.70 67.51 66.49 66.50 66.79 67.09 67.23 67.71 68.17 68.43
75.83 78.03 77.78 78.37 78.92 78.79 79.07 79.03 77.74 76.66 76.46 75.45 74.27 73.51 69.69 69.70 70.49 69.37 67.61 66.94 65.15 66.19 67.67 69.03 71.12 70.84 71.32 71.49 72.47 70.79 69.94 67.76 67.85 67.87 67.48 67.24 67.00 67.61 67.91 68.04 68.21 68.25 68.41
76.71 77.53 77.60 78.08 78.43 78.73 79.07 79.00 77.46 76.92 76.23 75.77 74.82 74.18 71.78 69.62 70.81 70.29 69.49 68.46 66.35 63.59 64.70 69.01 66.96 71.76 71.85 71.62 72.30 72.03 71.69 69.60 68.22 67.36 66.53 66.61 66.80 66.95 67.41 67.99 68.16 68.18 68.48
79.32 78.01 77.63 77.66 78.14 78.56 78.95 79.07 77.98 77.79 76.50 75.07 74.26 74.00 73.38 70.31 70.99 70.55 69.87 68.88 68.41 66.25 63.98 67.71 68.03 70.28 71.17 70.33 71.60 71.54 71.90 70.30 68.50 67.27 66.54 66.10 65.99 66.20 66.58 66.81 66.83 67.01 67.13
80.57 79.06 79.23 77.75 77.42 78.27 78.97 78.68 78.45 77.85 76.49 75.66 74.83 73.87 73.67 74.13 69.89 69.83 69.96 69.39 68.77 68.24 65.37 67.22 69.03 71.24 71.65 71.67 71.14 71.60 71.93 71.51 70.73 67.03 67.06 65.90 65.22 65.15 65.50 65.90 66.28 66.21 66.11
80.68 80.63 79.52 78.94 78.09 77.96 79.16 78.34 77.64 77.06 76.32 75.32 74.58 74.03 73.18 71.80 72.21 73.19 70.11 72.58 70.82 71.72 67.37 68.60 70.32 68.79 70.66 72.07 72.15 72.02 70.78 69.89 69.77 67.98 66.88 65.79 65.39 65.13 65.00 64.89 64.95 64.33 63.82
80.12 79.69 80.04 79.84 79.10 78.57 78.65 78.32 78.07 77.41 76.66 76.02 75.26 74.41 73.33 72.75 71.58 71.25 70.91 70.31 69.66 69.41 69.62 67.65 67.36 69.39 69.57 70.61 70.82 71.50 71.08 71.09 69.21 67.71 64.08 64.08 63.94 64.42 64.02 63.19 62.53 61.47 60.09
79.77 79.98 80.18 80.29 79.81 79.36 78.89 78.22 77.68 77.47 77.38 76.41 76.10 75.25 74.33 73.22 72.18 71.80 71.04 71.80 71.48 69.79 70.27 68.37 67.28 67.33 68.63 70.96 69.69 68.18 68.22 69.06 68.56 69.61 68.56 65.48 66.17 65.29 64.35 62.53 61.99 61.34 59.13
79.74 80.01 79.79 80.11 79.90 79.27 77.51 78.65 78.78 78.15 78.08 76.76 76.54 75.67 74.90 73.58 70.08 71.16 70.93 72.21 71.85 69.63 67.43 67.39 67.08 67.09 67.17 67.09 67.53 67.90 67.24 67.63 69.67 69.85 68.13 68.18 67.98 68.20 67.81 62.58 65.11 63.14 61.23
79.80 79.72 79.51 79.61 79.13 77.99 70.52 67.93 75.58 78.16 78.17 77.58 76.91 76.77 76.56 71.81 70.91 66.54 66.42 67.49 69.95 70.54 69.05 67.32 67.24 67.30 70.06 68.44 68.58 67.65 66.97 65.98 64.53 68.78 67.90 67.17 67.97 67.11 67.51 67.79 63.33 61.35 60.14
79.09 79.24 79.24 79.23 78.90 79.29 66.77 65.79 68.55 78.06 77.93 77.99 78.17 77.75 75.26 74.70 72.11 73.28 66.32 64.75 65.80 65.69 67.07 72.09 69.98 70.09 70.01 70.71 70.41 69.15 68.99 66.87 65.97 68.48 68.00 65.38 67.23 66.35 66.97 66.63 62.13 60.79 59.40
78.67 79.04 79.12 79.18 79.18 78.97 66.20 63.57 66.55 76.48 77.74 78.61 78.70 78.45 77.89 77.22 75.98 73.93 72.33 69.62 68.72 69.15 69.54 69.97 71.25 71.60 72.45 72.57 71.95 70.93 69.24 69.48 68.95 68.06 68.60 63.26 65.71 64.24 65.43 64.95 62.17 60.60 59.06
78.03 77.81 78.26 79.18 79.20 78.70 63.33 61.36 65.67 75.54 75.94 77.84 78.84 78.92 78.37 77.77 70.81 65.26 73.04 70.83 68.34 69.07 66.59 63.85 64.09 66.04 64.28 64.53 67.17 68.90 66.18 66.01 63.32 65.38 66.72 63.91 63.27 61.71 62.65 62.40 62.98 60.71 56.72
76.88 76.86 76.87 78.38 73.94 78.45 67.03 59.60 63.76 73.88 73.94 73.77 76.30 76.85 67.36 74.37 64.77 61.77 71.59 70.90 69.26 69.37 70.59 69.61 68.60 64.77 65.26 65.29 62.80 68.66 69.70 65.40 64.12 63.12 65.53 62.42 60.26 60.03 57.83 60.82 60.71 60.48 59.74
MSLP
1018.37 1018.26 1018.79 1018.14 1018.42 1018.31 1018.62 1018.83 1018.84 1018.79 1018.54 1018.23 1018.57 1018.14 1018.06 1018.50 1018.54 1018.42 1018.95 1020.49 1020.72 1020.84 1020.95 1021.15 1021.30 1021.44 1021.67 1021.84 1021.91 1022.03 1022.13 1022.22 1022.33 1022.43 1022.51 1022.58 1022.71 1022.81 1022.90 1022.93 1022.86 1022.85 1022.91
1018.28 1018.03 1018.59 1017.97 1018.13 1018.24 1018.34 1018.91 1018.97 1018.78 1018.87 1018.81 1018.85 1018.47 1018.38 1018.44 1018.87 1018.99 1018.41 1019.83 1020.66 1020.84 1020.85 1020.97 1021.14 1021.35 1021.49 1021.66 1021.77 1021.88 1022.00 1022.16 1022.25 1022.30 1022.38 1022.50 1022.61 1022.76 1022.82 1022.81 1022.80 1022.76 1022.78
1018.24 1018.52 1017.99 1017.95 1017.95 1018.46 1019.13 1019.04 1019.06 1018.77 1018.75 1019.10 1019.21 1018.18 1018.06 1018.51 1018.97 1019.69 1018.82 1018.64 1019.86 1020.60 1020.81 1020.89 1021.00 1021.21 1021.39 1021.48 1021.59 1021.77 1021.86 1021.91 1022.06 1022.17 1022.28 1022.40 1022.50 1022.59 1022.64 1022.64 1022.64 1022.63 1022.63
1018.48 1018.39 1017.93 1017.73 1017.97 1018.74 1019.09 1018.93 1019.08 1019.15 1019.07 1019.06 1018.80 1018.44 1018.39 1018.28 1018.54 1018.99 1018.60 1018.61 1018.79 1018.86 1020.31 1020.72 1020.90 1021.09 1021.25 1021.33 1021.43 1021.48 1021.63 1021.74 1021.84 1022.01 1022.14 1022.21 1022.31 1022.43 1022.44 1022.47 1022.47 1022.43 1022.39
1018.11 1018.27 1017.64 1017.54 1018.40 1018.07 1018.26 1018.71 1019.00 1018.65 1018.84 1018.89 1018.49 1018.45 1018.51 1018.28 1018.26 1018.06 1018.44 1018.78 1018.96 1018.92 1018.63 1019.93 1020.62 1020.85 1020.93 1020.97 1021.09 1021.22 1021.34 1021.45 1021.55 1021.72 1021.87 1021.93 1022.05 1022.13 1022.15 1022.17 1022.20 1022.18 1022.14
1017.70 1017.92 1017.69 1018.17 1018.36 1018.56 1018.56 1018.91 1018.97 1018.84 1018.75 1018.72 1018.26 1018.47 1018.40 1018.32 1018.14 1018.18 1018.74 1018.27 1018.66 1018.70 1018.77 1019.45 1019.93 1020.14 1020.77 1020.90 1020.97 1021.06 1020.98 1021.07 1021.21 1021.37 1021.45 1021.71 1021.87 1021.89 1021.87 1021.94 1021.96 1021.92 1021.90
1017.29 1017.55 1017.30 1017.89 1018.05 1018.28 1018.43 1018.84 1018.99 1019.17 1018.53 1019.00 1018.56 1018.46 1018.50 1018.53 1018.48 1018.19 1017.98 1018.11 1018.86 1018.79 1019.29 1019.43 1019.76 1019.50 1020.14 1020.76 1021.08 1021.09 1021.02 1020.93 1021.02 1021.11 1021.24 1021.42 1021.45 1021.59 1021.68 1021.68 1021.63 1021.60 1021.63
1016.99 1017.15 1017.33 1017.46 1017.78 1017.50 1018.45 1018.64 1018.91 1018.43 1018.59 1018.83 1018.23 1018.05 1017.77 1018.25 1018.20 1018.29 1018.55 1018.70 1018.88 1018.80 1019.31 1019.79 1019.98 1019.99 1019.79 1019.96 1020.90 1021.19 1021.19 1021.09 1021.09 1021.04 1021.12 1021.31 1021.47 1021.53 1021.53 1021.46 1021.35 1021.36 1021.30
1016.52 1016.81 1017.06 1017.51 1017.62 1017.86 1017.58 1018.38 1018.61 1018.77 1018.05 1018.78 1018.97 1018.09 1017.66 1016.95 1017.85 1018.59 1019.11 1018.88 1019.34 1019.09 1019.33 1019.84 1019.98 1020.24 1020.30 1020.28 1020.68 1021.02 1021.25 1021.28 1021.38 1021.53 1021.63 1021.70 1021.77 1021.81 1021.78 1021.64 1021.50 1021.43 1021.45
1016.12 1016.33 1016.77 1017.15 1017.54 1016.99 1017.41 1017.88 1018.24 1018.32 1018.57 1018.12 1018.61 1018.62 1018.64 1018.26 1017.66 1017.72 1018.59 1018.96 1019.30 1019.30 1019.58 1019.33 1019.76 1020.23 1020.46 1020.25 1020.90 1021.06 1021.26 1021.33 1021.49 1021.67 1021.88 1021.91 1022.08 1022.10 1022.01 1021.95 1021.83 1021.71 1021.57
1015.72 1015.89 1016.22 1016.66 1017.03 1017.03 1017.20 1017.69 1018.10 1018.40 1018.27 1018.04 1017.97 1018.18 1018.46 1018.37 1018.44 1017.74 1017.22 1018.10 1018.66 1018.84 1019.09 1019.35 1019.25 1019.40 1020.03 1020.20 1020.55 1021.28 1021.46 1021.51 1021.69 1021.87 1021.92 1021.81 1021.63 1021.63 1021.66 1021.73 1021.89 1021.96 1021.80
1015.03 1015.53 1015.74 1016.19 1016.47 1016.54 1016.90 1017.31 1017.78 1018.18 1018.27 1018.33 1018.07 1018.02 1017.84 1017.79 1017.72 1017.84 1017.62 1017.75 1017.65 1017.92 1018.58 1018.86 1019.43 1019.38 1019.56 1019.99 1020.39 1020.99 1021.49 1021.72 1021.84 1021.87 1021.85 1021.90 1022.16 1021.84 1021.69 1021.54 1021.46 1021.56 1021.66
1014.01 1014.49 1015.35 1015.76 1016.05 1016.31 1016.37 1016.76 1017.38 1017.64 1018.08 1018.09 1018.45 1017.91 1017.83 1017.73 1017.68 1017.69 1017.53 1017.36 1017.60 1017.76 1018.38 1018.51 1018.71 1019.25 1019.36 1019.53 1019.75 1020.67 1021.05 1021.38 1021.64 1021.66 1021.87 1021.86 1021.80 1021.72 1021.55 1021.87 1021.76 1021.68 1021.50
1013.30 1013.97 1014.66 1014.99 1015.42 1015.63 1016.05 1016.39 1016.78 1017.15 1017.47 1017.92 1018.12 1018.09 1017.61 1017.68 1017.78 1017.72 1017.60 1017.40 1017.52 1017.64 1017.97 1018.49 1018.57 1018.71 1019.15 1019.49 1019.65 1020.38 1020.41 1020.92 1021.13 1021.27 1021.39 1021.56 1021.55 1021.50 1021.69 1021.76 1021.45 1021.06 1021.04
1012.78 1013.40 1014.04 1014.53 1014.75 1015.03 1015.46 1016.01 1016.24 1016.61 1016.88 1017.39 1017.62 1018.00 1017.90 1017.45 1017.57 1017.71 1017.74 1017.50 1017.21 1016.87 1017.03 1017.97 1018.07 1018.80 1018.90 1019.09 1019.39 1019.63 1019.72 1020.06 1020.79 1021.09 1021.20 1021.22 1021.60 1021.53 1021.30 1021.17 1021.25 1021.40 1021.38
1012.44 1012.55 1013.34 1013.85 1014.27 1014.62 1015.05 1015.54 1015.61 1016.07 1016.55 1016.76 1016.95 1017.33 1017.65 1017.18 1017.48 1017.61 1017.54 1017.55 1017.42 1017.19 1016.88 1017.15 1017.89 1018.10 1018.45 1018.35 1018.88 1019.54 1019.53 1020.02 1020.28 1020.49 1020.75 1021.00 1021.04 1021.12 1020.84 1020.79 1020.80 1020.83 1021.08
1011.71 1012.23 1012.56 1013.19 1013.59 1013.99 1014.48 1014.89 1015.10 1015.16 1015.87 1016.24 1016.44 1016.66 1017.15 1017.10 1017.00 1017.14 1017.38 1017.47 1017.39 1017.28 1016.93 1016.82 1017.55 1018.06 1018.74 1018.84 1018.52 1019.01 1019.04 1019.26 1019.16 1020.00 1020.45 1020.54 1020.52 1020.49 1020.56 1020.46 1020.53 1020.46 1020.50
1010.87 1011.36 1011.86 1012.31 1012.67 1013.08 1013.60 1014.03 1014.32 1014.33 1014.90 1015.39 1015.80 1016.19 1016.55 1016.80 1017.02 1017.01 1017.06 1017.35 1017.27 1017.30 1017.21 1017.16 1017.23 1017.85 1018.42 1018.36 1018.61 1018.68 1018.44 1018.25 1018.59 1019.79 1019.90 1019.88 1019.97 1019.83 1019.97 1020.17 1020.25 1020.18 1019.96
1009.66 1010.26 1010.81 1011.21 1011.63 1012.05 1012.48 1012.92 1013.23 1013.55 1013.83 1014.50 1014.93 1015.40 1015.83 1016.28 1016.67 1016.55 1016.96 1016.86 1017.05 1017.42 1017.81 1017.47 1016.91 1017.38 1017.61 1018.07 1018.41 1018.77 1018.77 1018.42 1018.41 1018.87 1019.13 1019.16 1019.38 1019.66 1019.88 1019.79 1019.63 1019.59 1019.84
1008.59 1009.09 1009.59 1010.09 1010.46 1010.92 1011.40 1011.80 1012.36 1012.74 1012.98 1013.36 1013.99 1014.44 1014.94 1015.41 1015.96 1016.38 1016.48 1016.69 1016.62 1016.79 1017.04 1017.11 1016.99 1016.74 1017.18 1017.58 1018.15 1017.85 1017.79 1018.30 1017.69 1017.20 1017.93 1018.67 1018.79 1018.81 1019.23 1019.34 1019.38 1019.43 1019.51
1007.41 1007.83 1008.33 1008.84 1009.28 1009.68 1010.06 1010.64 1011.03 1011.37 1011.71 1012.29 1012.88 1013.31 1013.86 1014.39 1014.97 1015.26 1015.43 1015.88 1016.14 1016.37 1015.93 1016.15 1016.31 1016.36 1016.56 1017.16 1017.49 1017.34 1017.41 1017.44 1017.44 1017.35 1017.92 1017.52 1017.25 1017.35 1017.46 1018.35 1017.90 1018.34 1018.75
1006.46 1007.00 1007.20 1007.60 1007.96 1008.04 1008.24 1009.07 1009.67 1010.01 1010.49 1011.23 1011.70 1012.27 1012.89 1013.49 1014.05 1014.81 1015.40 1015.67 1016.16 1016.26 1016.03 1015.10 1015.26 1015.54 1016.01 1016.60 1017.15 1017.09 1017.21 1017.15 1016.94 1017.19 1017.48 1016.93 1016.99 1017.03 1016.95 1016.76 1017.48 1017.79 1018.34
1005.51 1005.75 1006.13 1006.40 1006.55 1007.06 1007.30 1007.98 1008.87 1009.43 1009.57 1009.80 1010.53 1011.07 1011.75 1012.35 1013.57 1014.36 1015.19 1015.99 1016.02 1015.50 1015.28 1014.97 1014.82 1015.62 1015.78 1016.15 1016.86 1017.03 1017.45 1017.44 1017.31 1017.19 1017.41 1016.57 1016.52 1016.64 1016.39 1016.32 1017.40 1017.83 1018.13
1004.06 1004.42 1004.74 1005.22 1005.66 1005.66 1006.38 1007.13 1008.05 1008.77 1008.60 1009.07 1009.87 1010.29 1010.63 1011.05 1011.86 1012.85 1013.41 1013.29 1013.53 1014.58 1015.20 1015.44 1014.49 1014.51 1015.43 1015.91 1016.40 1016.78 1017.14 1017.42 1017.53 1017.30 1017.02 1016.82 1016.30 1016.12 1016.17 1016.44 1016.90 1017.34 1017.89
1003.71 1004.28 1004.66 1004.89 1005.27 1005.93 1006.59 1007.46 1008.29 1008.10 1008.08 1008.13 1008.54 1008.59 1009.41 1010.20 1010.48 1011.54 1011.80 1012.59 1013.14 1013.05 1013.63 1014.95 1015.25 1014.69 1015.05 1015.93 1015.96 1016.60 1016.67 1016.92 1016.89 1016.60 1016.69 1016.65 1016.07 1015.98 1016.30 1016.34 1016.29 1017.28 1017.45
1002.63 1003.00 1003.26 1003.61 1004.16 1004.96 1005.76 1007.00 1008.27 1008.82 1008.91 1009.38 1008.82 1007.94 1007.63 1008.01 1008.84 1009.19 1010.72 1011.86 1012.12 1012.80 1013.85 1014.16 1015.21 1015.14 1015.03 1015.94 1016.43 1016.39 1016.33 1016.38 1016.13 1016.10 1015.99 1016.23 1016.15 1015.94 1016.01 1015.80 1016.08 1016.18 1016.24
Wind_Speed
1 3 4 2 2 4 1 3 0 1 2 5 2 2 5 5 3 3 6 9 9 8 7 7 6 7 8 8 8 9 8 7 6 5 5 6 6 5 4 2 2 2 2
2 1 2 1 1 2 5 5 4 1 3 5 4 2 3 1 5 3 5 9 9 7 6 7 8 8 9 9 8 9 9 8 8 7 6 7 7 5 6 5 5 5 5
5 3 1 3 1 3 1 1 1 1 5 1 2 4 2 3 9 3 4 2 11 10 8 6 7 8 9 9 9 9 10 10 10 9 8 8 8 8 7 7 7 6 7
6 5 4 2 3 3 1 1 1 4 3 3 1 1 2 1 3 6 5 3 0 8 10 8 6 7 7 8 8 8 8 10 10 9 9 8 8 9 9 8 8 8 7
8 7 5 1 2 2 3 1 5 2 4 1 5 0 2 2 4 3 5 1 2 4 1 12 9 7 7 6 8 8 10 9 9 10 11 11 10 10 10 10 9 10 10
9 8 5 3 4 3 2 1 5 2 2 3 4 3 2 2 2 3 5 8 6 2 3 1 9 8 9 5 4 6 9 8 8 9 11 8 9 11 10 10 10 11 11
8 8 7 4 5 4 3 3 3 4 2 2 3 4 4 6 4 4 4 3 5 3 4 4 2 6 8 6 2 1 4 6 6 6 7 8 9 9 9 11 12 11 11
7 7 7 7 5 1 4 4 4 1 0 2 2 2 6 6 5 3 1 3 5 4 6 4 4 1 1 5 4 4 5 3 2 3 4 4 3 2 2 3 8 7 8
9 9 7 5 7 5 4 4 5 4 0 1 3 4 3 2 6 6 5 3 3 3 4 5 5 5 3 5 7 7 6 6 6 6 5 5 5 5 5 6 5 3 3
10 9 7 7 8 6 3 4 4 4 4 3 3 4 4 6 4 7 5 5 4 5 2 3 6 5 4 5 7 10 6 6 6 6 6 5 5 6 6 6 5 4 4
12 11 10 9 9 8 7 5 5 6 4 5 4 3 4 4 3 5 4 7 6 5 5 5 4 5 5 5 6 8 6 6 6 5 5 4 3 2 2 2 3 4 5
10 12 12 10 9 9 7 7 7 7 6 4 4 4 5 5 5 5 5 2 4 7 5 5 5 4 5 5 3 11 7 5 4 3 3 2 1 1 1 1 2 3 4
9 10 12 12 10 10 8 8 8 7 8 7 7 5 5 5 3 4 4 2 4 3 5 5 5 5 5 5 6 9 11 9 8 7 4 4 5 5 6 6 6 7 7
10 10 12 13 13 11 10 9 8 8 8 8 8 7 5 5 5 4 5 4 4 5 4 5 3 5 5 6 2 9 8 11 9 8 8 9 9 9 8 8 8 9 10
11 11 13 14 14 13 12 11 9 9 9 9 9 8 8 6 5 5 5 5 5 4 5 8 5 4 3 5 6 10 10 10 9 8 8 8 8 10 10 10 9 9 9
14 13 14 15 14 13 13 13 11 11 11 9 9 10 9 7 6 6 6 6 5 5 5 4 6 4 4 4 7 6 8 2 8 9 8 7 8 9 10 11 10 9 7
14 16 14 15 15 14 14 14 13 12 14 13 12 11 12 9 8 8 7 7 6 6 6 4 3 7 6 7 4 5 6 6 5 11 7 6 7 9 10 10 8 7 7
17 16 16 16 16 16 15 16 17 15 16 16 15 13 14 11 12 8 8 7 7 6 7 6 4 6 8 8 7 8 7 7 4 9 6 5 8 9 8 7 6 7 6
18 19 17 17 17 17 17 18 17 17 17 16 16 16 15 14 13 10 10 9 9 7 7 9 7 7 6 7 8 8 7 8 5 10 10 12 11 7 6 8 8 7 7
19 19 18 18 19 18 18 19 18 17 17 17 17 17 16 16 15 14 12 11 9 8 9 8 8 7 7 7 6 7 9 7 9 7 2 8 4 9 9 9 8 9 9
19 19 19 19 19 19 17 19 19 18 18 18 17 18 17 17 17 16 12 13 11 11 9 9 9 8 7 8 8 8 8 7 3 3 6 7 7 7 9 12 12 17 9
19 19 20 20 20 18 21 21 21 18 18 18 17 17 16 17 15 15 14 12 10 10 11 10 9 9 6 6 8 8 7 10 7 6 6 8 4 8 7 9 10 7 4
18 20 20 21 21 21 18 22 23 18 18 18 18 16 17 14 16 16 13 8 14 17 14 11 11 7 7 7 9 8 9 5 10 2 5 8 6 7 7 5 8 4 3
20 19 19 20 19 18 16 20 22 23 19 17 18 18 17 17 17 18 17 20 19 14 15 14 13 11 10 7 9 9 8 8 8 8 5 7 6 7 7 7 9 7 6
16 16 16 17 18 16 11 13 17 21 21 18 16 18 18 18 17 22 20 19 16 15 13 13 5 6 10 5 4 7 6 6 6 7 3 6 6 6 6 7 6 10 6
16 14 17 16 16 15 11 14 16 14 13 9 15 18 23 22 22 28 21 16 14 11 13 14 11 7 9 8 6 9 6 6 7 8 4 3 7 6 6 6 4 8 8
Wind_Direction
208 270 31 285 4 122 179 110 63 253 338 71 258 71 64 91 98 116 110 171 192 202 203 199 189 185 181 188 187 191 193 192 199 198 208 202 193 207 207 236 250 175 253
216 105 233 207 121 355 31 11 18 355 15 16 10 56 42 60 71 328 114 147 187 198 198 199 201 191 195 195 208 198 207 209 209 211 213 210 209 208 226 239 239 241 256
206 296 256 272 10 73 69 108 270 211 141 111 324 193 310 139 119 218 281 86 151 192 200 202 205 203 204 207 210 214 217 219 218 218 222 224 221 222 224 235 246 252 264
241 242 237 241 51 159 169 234 286 236 56 228 99 323 359 215 133 164 226 263 63 140 171 189 199 203 213 219 223 226 227 230 228 224 232 234 234 235 231 234 247 255 260
226 245 252 223 210 291 161 64 238 14 138 139 206 277 111 170 169 136 93 182 64 243 129 163 183 195 209 212 221 226 239 239 231 225 236 235 230 237 239 235 240 250 253
239 230 238 252 248 124 204 149 310 85 344 4 343 79 80 154 168 104 176 170 149 275 215 118 177 189 191 223 219 230 225 231 234 226 231 226 239 235 240 241 240 242 247
229 222 244 184 218 206 284 203 193 207 184 88 214 146 133 170 183 153 153 75 114 124 79 89 228 195 156 169 137 293 253 240 224 232 239 239 250 246 247 250 244 242 244
217 226 234 238 186 214 207 213 220 252 348 105 332 226 170 157 155 137 23 69 18 124 113 87 79 293 317 105 98 80 69 84 157 193 137 98 77 34 352 328 252 261 261
218 221 228 219 218 252 191 206 204 237 241 175 289 304 178 146 162 168 178 139 172 120 105 119 102 109 101 101 167 127 97 93 98 100 93 81 72 64 49 39 37 27 331
224 227 227 215 220 231 265 205 215 253 249 193 184 221 319 357 230 157 187 177 197 190 140 164 127 117 137 112 59 74 108 107 105 101 93 83 60 43 39 38 37 24 8
223 230 228 217 215 223 197 241 192 223 188 286 221 175 210 221 241 301 185 176 206 206 187 211 164 152 156 156 149 124 146 138 130 121 112 115 115 83 47 32 18 357 345
213 221 227 225 221 224 217 206 202 205 234 236 259 231 217 210 200 220 238 239 252 172 206 197 196 222 178 165 149 132 176 186 174 169 179 199 63 276 308 312 308 325 317
220 217 212 214 214 214 219 212 194 204 203 209 213 228 234 238 255 247 263 232 256 185 206 218 210 215 230 214 189 191 184 203 209 210 226 239 248 248 260 292 302 301 295
221 214 202 215 216 217 215 203 204 212 202 209 211 234 245 230 211 226 241 247 203 207 184 273 179 223 215 233 352 170 216 198 208 217 219 231 241 245 254 264 262 258 267
229 213 209 213 214 213 212 207 225 204 208 208 203 216 231 227 224 227 231 234 254 255 210 154 234 170 236 203 216 232 232 182 196 223 243 245 254 253 250 253 258 269 273
220 221 206 213 213 213 214 211 215 210 210 210 215 201 220 223 215 232 229 227 233 255 262 181 203 175 207 221 157 231 240 222 196 222 237 251 258 267 260 261 265 271 284
214 213 206 211 214 214 211 211 223 218 210 213 213 206 210 218 219 216 222 230 227 230 237 217 245 162 212 241 207 213 218 234 224 200 210 247 263 265 265 263 265 260 265
210 209 209 206 210 213 211 212 214 215 212 213 209 211 212 208 217 225 213 224 231 230 249 229 223 211 217 205 236 229 238 234 253 148 177 218 235 237 239 245 247 242 244
207 209 209 207 208 211 212 214 216 217 216 216 213 211 211 211 209 214 219 204 220 222 222 262 233 218 237 213 211 235 240 243 249 162 205 220 224 226 226 226 225 232 263
208 207 208 208 209 210 214 218 217 221 220 218 217 216 212 212 215 211 204 217 213 208 215 235 245 234 213 228 237 250 212 207 234 247 315 254 206 200 220 230 227 243 253
210 209 207 209 211 212 214 214 217 215 217 218 215 215 214 214 210 210 206 205 204 208 220 216 237 237 229 227 230 237 241 264 253 248 274 274 258 231 216 215 232 223 217
212 212 213 211 213 217 213 203 210 215 215 214 214 212 219 204 207 199 209 195 201 199 220 229 231 237 239 239 251 257 246 252 267 252 256 278 285 278 283 282 96 112 185
211 215 215 215 216 220 208 197 199 219 217 213 210 209 209 214 206 210 204 224 215 217 225 214 224 265 247 224 254 239 251 246 259 271 231 283 292 267 285 302 104 120 240
214 215 216 219 222 222 205 200 193 214 225 219 213 215 213 209 199 204 200 206 212 215 227 237 225 206 234 236 230 241 243 251 269 254 248 270 285 287 301 304 168 179 211
217 222 225 225 232 239 206 199 195 217 228 227 217 216 213 215 196 190 200 206 211 215 207 228 227 127 113 139 204 215 211 247 260 262 153 238 285 296 297 293 282 157 213
217 220 222 225 229 240 213 190 199 235 239 255 236 220 209 210 191 180 198 204 205 203 217 190 198 146 148 158 162 226 232 232 236 256 86 289 298 316 299 294 308 306 306